sat.trackr.live / text

‹ back to catalog

STARLINK-34625

NORAD 66154 · 2025-240J

PAYLOAD ACTIVE UNKNOWN

§ Identity

Operator
Country
US
Launch date
2025-10-25
Launch site
AFWTR
Launch vehicle
Mass (kg)
RCS (m²)

Purposes: comms

External: N2YO · Heavens-Above · Gunter

§ Orbital elements

Epoch: 2026-05-25T02:02:48.426144Z

Period
94.11 min
Inclination
53.1590°
Eccentricity
0.0001160
Mean motion
15.30197881 rev/d
Perigee alt
474.4 km
Apogee alt
476.0 km
Semi-major
6,853.4 km
B*
5.5465e-4
RAAN
68.0554°
Arg perigee
101.7590°
Mean anomaly
258.3541°
Rev number
3,373

§ Raw data

STARLINK-346251 66154U 25240J   26145.08528271  .00016103  00000+0  55465-3 0  99942 66154  53.1590  68.0554 0001160 101.7590 258.3541 15.30197881 33733

JSON: /api/v1/satellites/66154 · /tle

For live sub-satellite position, see the globe view (requires WebGL).

§ Visibility from observer

Set your observer location to see the next 7 days of passes ≥ 10°. The values pass through the URL so the page stays shareable.

No JS? Fill the form by hand. The geolocation button needs JavaScript.